Current weather by "City, St" or "zip code"  
 

Current Conditions: Tampa, Tampa International Airport, FL

A Few Clouds


78.0 F

Last Updated on May 21 2022, 3:53 am EDT
Humidity: 69%
Wind Speed: E 6.9 mph
Barometer 30.11 in
Dewpoint: 66.9 F
Visibility: 10.00 mi
Precip: --
Heat Index: NA
Wind Chill: NA
Current conditions at:

Tampa, Tampa International Airport, FL (KTPA)

Lat: 27.96139 Lon: 82.54028

Local Radar Image active severe weather and emergency alerts image image weather storm and storm spotter reports image weather observation monitoring service image
Local
Radar
Active
Alerts
Storm Reports Obs
Monitoring

Sign-up For Email & Text Message Weather Alert Notification Services



Advertise Here

Observation History for Tampa, Tampa International Airport, FL


Time Wind
(mph)
Vis
(mi)
Weather Precip (in) Temperature (F) Relative
Humidity
Wind
Chill
(F)
Heat
Index
(F)
Pressure
Air Dwpt altimeter
(in)
sea level
(mb)
Rmks
3:53 am EDT E 6.9 10.00 A Few Clouds -- 78.0 66.9 69% NA NA 30.11 1019.6
2:53 am EDT 6.9 10.00 Mostly Cloudy -- 78.0 66.0 67% NA NA 30.11 1019.7
1:53 am EDT SE 4.6 10.00 Mostly Cloudy -- 79.0 66.9 67% NA NA 30.11 1019.7
12:53 am EDT SE 9.2 10.00 Mostly Cloudy -- 79.0 66.9 67% NA NA 30.09 1019.0
11:53 pm EDT SE 16.1 G 26.5 10.00 Mostly Cloudy -- 79.0 66.9 67% NA NA 30.10 1019.1
10:53 pm EDT SE 15.0 G 28.8 10.00 Partly Cloudy -- 79.0 70.0 74% NA NA 30.11 1019.4
9:53 pm EDT SE 9.2 G 24.2 10.00 Mostly Cloudy -- 79.0 71.1 77% NA NA 30.08 1018.7
8:53 pm EDT E 8.1 G 17.3 10.00 Mostly Cloudy -- 82.0 71.1 69% NA 86 30.07 1018.1
7:53 pm EDT S 9.2 10.00 Mostly Cloudy -- 85.0 73.0 68% NA 92 30.04 1017.2
5:53 pm EDT S 11.5 10.00 Mostly Cloudy -- 85.0 73.0 68% NA 92 30.02 1016.4
4:53 pm EDT S 13.8 G 21.9 10.00 Mostly Cloudy -- 86.0 72.0 63% NA 92 30.00 1015.8
3:53 pm EDT S 13.8 10.00 Mostly Cloudy -- 88.0 75.0 66% NA 98 30.02 1016.4
2:53 pm EDT S 10.4 10.00 Thunderstorm -- 85.0 73.9 70% NA 93 30.03 1016.8
11:53 am EDT 10.00 Overcast -- 80.0 73.0 79% NA 84 30.05 1017.4
10:53 am EDT SE 6.9 10.00 Thunderstorm in Vicinity 00.01 78.0 71.1 79% NA NA 30.05 1017.5
9:53 am EDT 3.5 8.00 Thunderstorm in Vicinity Light Rain 00.16 76.0 71.1 85% NA NA 30.06 1017.7
7:53 am EDT E 4.6 10.00 Overcast -- 79.0 70.0 74% NA NA 30.02 1016.5
5:53 am EDT N 0.0 10.00 A Few Clouds -- 77.0 70.0 79% NA NA 29.96 1014.6
4:53 am EDT SE 3.5 10.00 Fair -- 79.0 71.1 77% NA NA 29.96 1014.5
3:53 am EDT SE 3.5 10.00 Fair -- 79.0 68.0 69% NA NA 29.96 1014.6

Regional Weather Observation


Clearwater Air Park, FL (KCLW)

Partly Cloudy
77.0 F

Plant City, Plant City Municipal Airport, FL (KPCM)

Partly Cloudy
75.0 F

Brooksville-Tampa Bay Regional Airport, FL (KBKV)

Thunderstorm Heavy Rain Fog/Mist
70.0 F

St. Petersburg/Clearwater Airport, FL (KPIE)

Mostly Cloudy
76.0 F

Tampa, Tampa International Airport, FL (KTPA)

A Few Clouds
78.0 F

Zephyrhills Airport, FL (KZPH)

Fair
71.0 F

Advertise Here


Advertise Here